[[{"header":{"parameterUnit":"m.s-1","parameterCategory":1,"la1":30.2991,"la2":30.254,"lo1":-89.0895,"lo2":-89.0444,"dy":0.0017,"dx":0.0017,"nx":28,"ny":28,"refTime":"2025-04-12T03:00:00:Z","depth":0,"parameterNumber":2,"parameterNumberName":"U-component_of_WINDS"},"data":[0,0,0,0,0,0,0,0,0,0,0,0,0,0,0,0,0,0,0,0,0,0,0,0,0,0,0,0,0,0,0,0,0,0,0,0,0,0,0,0,0,0,0,0,0,0,0,0,0,0,0,0,0,0,0,0,0,0,-0.8903,-0.8904,0,-0.8982,-0.8983,-0.8984,-0.8944,-0.8942,-0.894,-0.8938,-0.9024,-0.9028,-0.9032,0,0,0,0,0,0,0,0,0,0,0,0,0,-0.8721,-0.8724,-0.8903,-0.8904,-0.8905,-0.8982,-0.8983,-0.8985,-0.8944,-0.8942,-0.8939,-0.8937,-0.9022,-0.9027,-0.9032,0,0,0,0,0,0,0,0,0,0,0,0,0,-0.88,-0.8725,-0.8903,-0.8894,-0.8894,-0.8982,-0.8983,-0.8985,-0.8945,-0.8942,-0.8939,-0.8936,-0.902,-0.9027,-0.9033,-0.9135,0,0,-0.9052,-0.9055,0,0,0,0,0,0,0,0,-0.8796,-0.8807,-0.8894,-0.8895,-0.8895,-0.895,-0.895,-0.9035,-0.8946,-0.8926,-0.8938,-0.8934,-0.9002,-0.901,-0.9032,-0.9139,-0.9143,-0.9053,-0.9057,-0.906,-0.9061,0,0,0,0,0,0,0,-0.879,-0.8803,-0.8935,-0.8896,-0.8896,-0.8888,-0.8895,-0.8966,-0.8981,-0.8927,-0.8924,-0.8934,-0.9001,-0.9026,-0.9033,-0.9144,-0.9053,-0.9058,-0.9062,-0.9065,-0.9341,-0.9345,0,0,0,0,0,0,-0.8785,-0.8799,-0.8932,-0.8937,-0.8836,-0.8893,-0.8902,-0.8936,-0.898,-0.8983,-0.8937,-0.8932,-0.9016,-0.9026,-0.9036,-0.916,-0.9059,-0.9065,-0.9069,-0.9338,-0.9342,-0.9346,0,0,0,0,0,0,-0.8781,-0.8797,-0.8929,-0.8867,-0.8883,-0.89,-0.8938,-0.8939,-0.8963,-0.8987,-0.899,-0.8959,-0.9014,-0.9027,-0.9111,-0.9163,-0.9068,-0.9074,-0.9334,-0.9339,-0.9344,-0.9409,0,0,0,0,0,0,-0.8776,-0.8796,-0.8834,-0.8868,-0.8887,-0.9001,-0.8941,-0.8943,-0.8973,-0.8968,-0.9008,-0.9012,-0.9013,-0.9102,-0.9117,-0.917,-0.9079,-0.9329,-0.9336,-0.9342,-0.9402,-0.9416,-0.9427,0,0,0,0,0,-0.8769,-0.885,-0.8836,-0.8852,-0.8935,-0.9004,-0.9015,-0.9013,-0.8978,-0.9017,-0.9032,-0.901,-0.9154,-0.9111,-0.9128,-0.9183,-0.9326,-0.9334,-0.9342,-0.9397,-0.9413,-0.9427,0,0,0,0,0,0,-0.8823,-0.8854,-0.8839,-0.8933,-0.8966,-0.8997,-0.9047,-0.9031,-0.9076,-0.9069,-0.9066,-0.9075,-0.9163,-0.9181,-0.9132,-0.9285,-0.9235,-0.9246,-0.927,-0.9286,-0.9298,-0.9293,-0.9084,0,0,0,0,0,-0.8845,-0.8897,-0.8922,-0.9003,-0.902,-0.9031,-0.9061,-0.9056,-0.9091,-0.9106,-0.9127,-0.9163,-0.9217,-0.9252,-0.9302,-0.9404,-0.9413,-0.945,-0.9462,-0.9473,-0.9484,-0.954,-0.9558,-0.9372,-0.9372,-0.9372,0,0,-0.8892,-0.8916,-0.895,-0.9014,-0.9039,-0.9096,-0.9043,-0.9104,-0.9147,-0.9116,-0.9196,-0.9213,-0.9253,-0.9347,-0.9389,-0.9365,-0.9537,-0.9483,-0.9491,-0.9496,-0.955,-0.9568,-0.9583,-0.9377,-0.9376,-0.9376,0,0,-0.9008,-0.903,-0.91,-0.9126,-0.9164,-0.917,-0.9187,-0.9221,-0.9231,-0.9311,-0.9289,-0.934,-0.9431,-0.9461,-0.9488,-0.9614,-0.9596,-0.963,-0.9697,-0.9752,-0.9766,-0.9779,-0.9826,-0.9843,-0.964,-0.9641,-0.9641,0,-0.9063,-0.9145,-0.9138,-0.9202,-0.9231,-0.9204,-0.9275,-0.9301,-0.9355,-0.9377,-0.9348,-0.9462,-0.9487,-0.9588,-0.9618,-0.964,-0.9661,-0.9627,-0.9764,-0.9777,-0.9789,-0.9834,-0.9852,-0.9645,-0.9644,-0.9644,-0.9643,0,-0.9211,-0.9268,-0.932,-0.9371,-0.9407,-0.9474,-0.9479,-0.9516,-0.9508,-0.9518,-0.96,-0.9629,-0.9685,-0.9708,-0.9701,-0.9808,-0.9792,-0.9764,-0.9714,-0.9811,-0.9854,-0.987,-0.965,-0.9649,-0.9648,-0.9647,0,0,-0.9365,-0.941,-0.9429,-0.9452,-0.9492,-0.9537,-0.9603,-0.9657,-0.9689,-0.9726,-0.9784,-0.9861,-0.9835,-0.9866,-0.9862,-0.991,-1.001,-0.9876,-0.9877,-0.9902,-1.0132,-1.0155,-1.0175,-0.9997,-1.0001,-1.0003,-1.013,0,-0.9484,-0.9599,-0.9595,-0.9703,-0.9757,-0.9731,-0.9789,-0.982,-0.9831,-0.9879,-0.9891,-0.9947,-0.9908,-0.9926,-0.9972,-0.9988,-1.0057,-0.9979,-1.0053,-1.0056,-1.0046,-1.0196,-1.0221,-1.0338,-1.0146,-1.0148,-1.015,0,-0.964,-0.9681,-0.9794,-0.9826,-0.9849,-0.9901,-0.995,-0.9995,-1.0031,-1.0035,-1.0069,-1.0058,-1.0127,-1.0073,-1.0168,-1.0115,-1.0145,-1.0157,-1.0162,-1.0171,-1.0111,-1.0212,-1.0376,-1.0395,-1.0176,-1.0174,-1.0172,0,-0.9743,-0.9827,-0.9906,-0.9926,-0.9965,-1.0002,-1.002,-1.0052,-1.0085,-1.0128,-1.0149,-1.02,-1.0228,-1.0268,-1.0272,-1.0231,-1.0369,-1.0315,-1.0377,-1.0377,-1.0409,-1.0407,-1.0583,-1.0424,-1.0424,-1.0423,-1.0423,0,-0.9879,-0.995,-0.9953,-1.0001,-1.008,-1.0075,-1.0153,-1.0168,-1.0197,-1.0249,-1.0229,-1.0279,-1.0278,-1.033,-1.0332,-1.0412,-1.0425,-1.0432,-1.0432,-1.0435,-1.0435,-1.0457,-1.045,-1.0428,-1.0427,-1.0426,-1.0425,0,-1.0009,-1.0013,-1.0098,-1.0127,-1.0136,-1.0193,-1.0219,-1.0266,-1.0274,-1.034,-1.0356,-1.0369,-1.0428,-1.0434,-1.0503,-1.0505,-1.0603,-1.0593,-1.0591,-1.059,-1.0652,-1.0647,-1.085,-1.0877,-1.0698,-1.07,-1.0701,0,-1.0096,-1.015,-1.0185,-1.0217,-1.0237,-1.0291,-1.0323,-1.032,-1.0355,-1.0399,-1.0441,-1.0498,-1.0544,-1.0639,-1.0657,-1.0709,-1.0703,-1.077,-1.0711,-1.0712,-1.0706,-1.0704,-1.0711,-1.0782,-1.0784,-1.0786,-1.0787,0,-1.0252,-1.0252,-1.0299,-1.0347,-1.0386,-1.0424,-1.046,-1.0488,-1.0489,-1.053,-1.0589,-1.0624,-1.0694,-1.0752,-1.0803,-1.0823,-1.0807,-1.0805,-1.0823,-1.0828,-1.0825,-1.0829,-1.0625,-1.0801,-1.08,-1.0799,-1.0798,-1.0797,-1.0365,-1.0412,-1.0444,-1.0497,-1.0523,-1.0557,-1.0603,-1.0616,-1.0665,-1.0721,-1.0715,-1.0782,-1.0816,-1.0884,-1.0908,-1.0961,-1.0939,-1.0964,-1.097,-1.0977,-1.0985,-1.0814,-1.097,-1.097,-1.0969,-1.0969,-1.0969,0,-1.0522,-1.0541,-1.0589,-1.0639,-1.0682,-1.0659,-1.0697,-1.0735,-1.0793,-1.0826,-1.0871,-1.094,-1.0995,-1.1016,-1.107,-1.1109,-1.1102,-1.1123,-1.1122,-1.1127,-1.1,-1.0981,-1.1127,-1.1127,-1.1127,-1.1127,-1.1127,-1.1127,-1.0609,-1.0687,-1.069,-1.0782,-1.08,-1.0864,-1.0888,-1.092,-1.0946,-1.1023,-1.1069,-1.1081,-1.111,-1.1166,-1.1216,-1.1221,-1.1243,-1.1268,-1.127,-1.1152,-1.1136,-1.1121,-1.1102,-1.1272,-1.1272,-1.1392,-1.1393,-1.1394]},{"header":{"parameterUnit":"m.s-1","parameterCategory":1,"la1":30.2991,"la2":30.254,"lo1":-89.0895,"lo2":-89.0444,"dy":0.0017,"dx":0.0017,"nx":28,"ny":28,"refTime":"2025-04-12T03:00:00:Z","depth":0,"parameterNumber":3,"parameterNumberName":"V-component_of_WINDS"},"data":[0,0,0,0,0,0,0,0,0,0,0,0,0,0,0,0,0,0,0,0,0,0,0,0,0,0,0,0,0,0,0,0,0,0,0,0,0,0,0,0,0,0,0,0,0,0,0,0,0,0,0,0,0,0,0,0,0,0,-4.1798,-4.1799,0,-4.1883,-4.1884,-4.1885,-4.1804,-4.18,-4.1797,-4.1794,-4.1878,-4.1883,-4.1889,0,0,0,0,0,0,0,0,0,0,0,0,0,-4.1562,-4.1567,-4.1798,-4.1799,-4.18,-4.1883,-4.1884,-4.1885,-4.1804,-4.18,-4.1796,-4.1793,-4.1877,-4.1883,-4.1889,0,0,0,0,0,0,0,0,0,0,0,0,0,-4.1658,-4.1569,-4.1798,-4.177,-4.1768,-4.1883,-4.1884,-4.1885,-4.1805,-4.18,-4.1795,-4.1791,-4.1875,-4.1882,-4.189,-4.2035,0,0,-4.1914,-4.1917,0,0,0,0,0,0,0,0,-4.1652,-4.1666,-4.1773,-4.1772,-4.177,-4.1828,-4.1832,-4.1936,-4.1806,-4.1791,-4.1794,-4.1788,-4.1865,-4.1874,-4.19,-4.2039,-4.2043,-4.1915,-4.1919,-4.1923,-4.1925,0,0,0,0,0,0,0,-4.1646,-4.1662,-4.1831,-4.1774,-4.1773,-4.1752,-4.176,-4.1851,-4.1854,-4.1792,-4.1786,-4.1798,-4.1864,-4.1893,-4.1901,-4.2044,-4.1914,-4.1921,-4.1926,-4.1929,-4.2305,-4.2311,0,0,0,0,0,0,-4.1643,-4.1657,-4.1829,-4.1834,-4.1698,-4.176,-4.1769,-4.1814,-4.1853,-4.1854,-4.1802,-4.1793,-4.1882,-4.1892,-4.1904,-4.2076,-4.1923,-4.193,-4.1935,-4.23,-4.2307,-4.2312,0,0,0,0,0,0,-4.1638,-4.1659,-4.1825,-4.1744,-4.1764,-4.1769,-4.182,-4.1818,-4.1847,-4.186,-4.186,-4.1831,-4.1878,-4.1893,-4.2003,-4.2078,-4.1934,-4.1941,-4.2294,-4.2302,-4.231,-4.2423,0,0,0,0,0,0,-4.1632,-4.1658,-4.1714,-4.1746,-4.1769,-4.1925,-4.1825,-4.1824,-4.1862,-4.1852,-4.1888,-4.1889,-4.1875,-4.1992,-4.2011,-4.2086,-4.1947,-4.2287,-4.2298,-4.2307,-4.2412,-4.2434,-4.2452,0,0,0,0,0,-4.1624,-4.1742,-4.1717,-4.1738,-4.1839,-4.1929,-4.1942,-4.1925,-4.1868,-4.1924,-4.1932,-4.1888,-4.2067,-4.2004,-4.2025,-4.2104,-4.2283,-4.2295,-4.2306,-4.2404,-4.2429,-4.2451,0,0,0,0,0,0,-4.1718,-4.1746,-4.1719,-4.1851,-4.1889,-4.1915,-4.1986,-4.1953,-4.2006,-4.1995,-4.197,-4.1979,-4.2095,-4.211,-4.204,-4.2246,-4.2165,-4.2182,-4.2232,-4.2257,-4.2276,-4.227,-4.1954,0,0,0,0,0,-4.1754,-4.1826,-4.1846,-4.1961,-4.1981,-4.1981,-4.2019,-4.2003,-4.204,-4.2055,-4.2071,-4.2108,-4.2172,-4.2215,-4.2275,-4.2414,-4.242,-4.2478,-4.2498,-4.2514,-4.2528,-4.2602,-4.2628,-4.2351,-4.2351,-4.2351,0,0,-4.183,-4.1854,-4.1901,-4.1981,-4.2008,-4.2082,-4.1994,-4.2076,-4.2131,-4.2067,-4.2172,-4.2185,-4.2225,-4.235,-4.2406,-4.2366,-4.2606,-4.2529,-4.2542,-4.2548,-4.2617,-4.2643,-4.2666,-4.2359,-4.2358,-4.2357,0,0,-4.2006,-4.2032,-4.213,-4.2159,-4.2201,-4.2199,-4.2223,-4.2255,-4.2261,-4.2367,-4.232,-4.2383,-4.2495,-4.2525,-4.2555,-4.2741,-4.2702,-4.2761,-4.2864,-4.2936,-4.2958,-4.2977,-4.3043,-4.3067,-4.2775,-4.2776,-4.2776,0,-4.2094,-4.2205,-4.2185,-4.227,-4.2306,-4.2252,-4.2351,-4.238,-4.2439,-4.2465,-4.2419,-4.2558,-4.258,-4.2711,-4.2757,-4.2783,-4.2808,-4.2757,-4.2956,-4.2975,-4.2993,-4.3056,-4.3081,-4.2782,-4.2782,-4.2781,-4.278,0,-4.2312,-4.2389,-4.2463,-4.2523,-4.2567,-4.2659,-4.2651,-4.2698,-4.2677,-4.268,-4.2787,-4.2813,-4.2876,-4.2906,-4.2886,-4.3034,-4.3008,-4.296,-4.2879,-4.3027,-4.3085,-4.3109,-4.2792,-4.279,-4.2788,-4.2786,0,0,-4.2551,-4.2597,-4.2625,-4.265,-4.2692,-4.2751,-4.284,-4.2903,-4.2943,-4.2985,-4.3059,-4.3154,-4.3109,-4.3143,-4.3126,-4.3189,-4.3335,-4.3133,-4.3134,-4.317,-4.3498,-4.3535,-4.3563,-4.3309,-4.3313,-4.3317,-4.3495,0,-4.2728,-4.2883,-4.2867,-4.3014,-4.3085,-4.3034,-4.3111,-4.3144,-4.3149,-4.3208,-4.3212,-4.3281,-4.3217,-4.3237,-4.3297,-4.3304,-4.34,-4.3291,-4.3376,-4.3379,-4.3368,-4.3594,-4.3633,-4.38,-4.3518,-4.3522,-4.3524,0,-4.2956,-4.3007,-4.3162,-4.3192,-4.3221,-4.3291,-4.3347,-4.3404,-4.3441,-4.3439,-4.3477,-4.3449,-4.3536,-4.3453,-4.3572,-4.3499,-4.3532,-4.354,-4.3546,-4.3554,-4.3461,-4.3607,-4.3852,-4.3878,-4.356,-4.3557,-4.3555,0,-4.3114,-4.3222,-4.3328,-4.3352,-4.339,-4.344,-4.3458,-4.3489,-4.3528,-4.3576,-4.3601,-4.3659,-4.369,-4.3735,-4.3722,-4.3663,-4.3845,-4.3761,-4.3846,-4.3846,-4.3887,-4.3885,-4.4141,-4.3908,-4.3908,-4.3907,-4.3907,0,-4.3314,-4.3411,-4.34,-4.3465,-4.3572,-4.3551,-4.3656,-4.3667,-4.3696,-4.3761,-4.372,-4.3783,-4.3762,-4.3823,-4.3813,-4.3914,-4.3928,-4.3929,-4.3925,-4.3933,-4.3933,-4.3955,-4.3943,-4.3914,-4.3913,-4.3911,-4.391,0,-4.351,-4.3507,-4.3619,-4.3646,-4.3655,-4.3732,-4.3754,-4.3815,-4.3816,-4.39,-4.3918,-4.3919,-4.3989,-4.398,-4.4058,-4.4051,-4.4176,-4.4158,-4.4164,-4.416,-4.4246,-4.4238,-4.4526,-4.4563,-4.4306,-4.4308,-4.431,0,-4.3639,-4.3712,-4.3746,-4.3788,-4.381,-4.3877,-4.3916,-4.3898,-4.3941,-4.3987,-4.4042,-4.4108,-4.416,-4.4273,-4.428,-4.4338,-4.4322,-4.4418,-4.433,-4.4336,-4.4323,-4.432,-4.4326,-4.4436,-4.4439,-4.4441,-4.4443,0,-4.3867,-4.3861,-4.392,-4.3979,-4.4027,-4.4072,-4.4112,-4.4148,-4.4133,-4.4183,-4.4254,-4.4294,-4.4373,-4.4439,-4.4494,-4.451,-4.4475,-4.4471,-4.4494,-4.4503,-4.4504,-4.4504,-4.4212,-4.4465,-4.4462,-4.4461,-4.446,-4.4459,-4.4033,-4.4095,-4.4129,-4.4196,-4.4225,-4.4263,-4.4322,-4.433,-4.4389,-4.4453,-4.4438,-4.4518,-4.455,-4.4621,-4.4643,-4.4705,-4.4669,-4.4702,-4.4711,-4.4719,-4.473,-4.4493,-4.4714,-4.4714,-4.4713,-4.4713,-4.4712,0,-4.4259,-4.4278,-4.434,-4.4398,-4.445,-4.4412,-4.4454,-4.45,-4.4572,-4.4605,-4.4657,-4.4738,-4.4801,-4.4813,-4.4873,-4.492,-4.4905,-4.4936,-4.4933,-4.4937,-4.4758,-4.4732,-4.4947,-4.4947,-4.4947,-4.4947,-4.4947,-4.4947,-4.4383,-4.4487,-4.4485,-4.4602,-4.4619,-4.4698,-4.4726,-4.4761,-4.4788,-4.488,-4.4933,-4.494,-4.4965,-4.5026,-4.5082,-4.5083,-4.5107,-4.5146,-4.5141,-4.4973,-4.495,-4.4928,-4.4903,-4.5151,-4.5151,-4.5315,-4.5317,-4.5318]}]]